Windom, MN

6:22 AM CDT on April 27, 2017 (GMT -0500)
Windom Municipal

Weather History for KMWM - November, 2013

Change the Weather History Date:

Saturday, November 9, 2013

  Actual Average Record
Temperature  
Mean Temperature 38 °F -  
Max Temperature 46 °F 42 °F 75 °F (1999)
Min Temperature 28 °F 26 °F 7 °F (1991)
Degree Days  
Heating Degree Days 27    
Moisture  
Dew Point 33 °F    
Average Humidity 75    
Maximum Humidity 87    
Minimum Humidity 53    
Precipitation  
Precipitation 0.00 in - - ()
Sea Level Pressure  
Sea Level Pressure 30.01 in    
Wind  
Wind Speed 17 mph (West)    
Max Wind Speed 29 mph    
Max Gust Speed 37 mph    
Visibility 10 miles    
Events      
Averages and records for this station are not official NWS values.
T = Trace of Precipitation, MM = Missing Value Source: NWS Daily Summary

Daily Weather History Graph

Daily Weather History Graph

Search for Another Location

Airport or City:

Trip Planner

Search our weather history database for the weather conditions in past years. The results will help you decide how hot, cold, wet, or windy it might be!

Date:

Astronomy

Nov. 09, 2013 Rise Set
Actual Time 7:07 AM CST 5:00 PM CST
Civil Twilight 6:36 AM CST 5:31 PM CST
Nautical Twilight 6:02 AM CST 6:05 PM CST
Astronomical Twilight 5:28 AM CST 6:39 PM CST
Moon 12:43 PM CST (11/9) 11:34 PM CST (11/9)
Length of Visible Light 10h 54m
Length of Day
9h 52m
Waxing Crescent, 44% of the Moon is Illuminated
Nov 9
Waxing Crescent
Nov 9
First Quarter
Nov 17
Full
Nov 25
Last Quarter
Dec 2
New

Hourly Weather History & Observations

Time (CST) Temp. Windchill Dew Point Humidity Pressure Visibility Wind Dir Wind Speed Gust Speed Precip Events Conditions
12:12 AM 44.6 °F 37.2 °F 39.2 °F 81% 29.72 in 10.0 mi West 17.3 mph - N/A   Mostly Cloudy
12:33 AM 44.6 °F 37.4 °F 39.2 °F 81% 29.73 in 10.0 mi West 16.1 mph - N/A   Clear
12:52 AM 42.8 °F 35.8 °F 39.2 °F 87% 29.74 in 10.0 mi West 13.8 mph 18.4 mph N/A   Clear
1:12 AM 42.8 °F 34.8 °F 39.2 °F 87% 29.75 in 10.0 mi WSW 17.3 mph - N/A   Clear
1:33 AM 42.8 °F 34.8 °F 37.4 °F 81% 29.76 in 10.0 mi WSW 17.3 mph - N/A   Clear
1:52 AM 42.8 °F 35.4 °F 37.4 °F 81% 29.77 in 10.0 mi WSW 15.0 mph - N/A   Clear
2:12 AM 41.0 °F 34.3 °F 37.4 °F 87% 29.76 in 10.0 mi WSW 11.5 mph - N/A   Clear
2:32 AM 41.0 °F 33.1 °F 37.4 °F 87% 29.77 in 10.0 mi WSW 15.0 mph - N/A   Clear
2:52 AM 39.2 °F 30.8 °F 35.6 °F 87% 29.77 in 10.0 mi WSW 15.0 mph - N/A   Clear
3:13 AM 39.2 °F 30.8 °F 35.6 °F 87% 29.77 in 10.0 mi WSW 15.0 mph - N/A   Clear
3:32 AM 39.2 °F 31.6 °F 35.6 °F 87% 29.78 in 10.0 mi West 12.7 mph - N/A   Clear
3:52 AM 39.2 °F 31.2 °F 35.6 °F 87% 29.78 in 10.0 mi WSW 13.8 mph - N/A   Clear
4:13 AM 39.2 °F 30.8 °F 35.6 °F 87% 29.78 in 10.0 mi West 15.0 mph - N/A   Clear
4:32 AM 39.2 °F 30.2 °F 35.6 °F 87% 29.80 in 10.0 mi West 17.3 mph - N/A   Mostly Cloudy
4:52 AM 41.0 °F 32.5 °F 35.6 °F 81% 29.81 in 10.0 mi West 17.3 mph - N/A   Overcast
5:13 AM 41.0 °F 33.1 °F 35.6 °F 81% 29.82 in 10.0 mi West 15.0 mph - N/A   Overcast
5:32 AM 42.8 °F 35.4 °F 37.4 °F 81% 29.83 in 10.0 mi West 15.0 mph 20.7 mph N/A   Overcast
5:52 AM 42.8 °F 34.8 °F 37.4 °F 81% 29.84 in 10.0 mi West 17.3 mph - N/A   Overcast
6:13 AM 42.8 °F 34.8 °F 37.4 °F 81% 29.85 in 10.0 mi West 17.3 mph - N/A   Mostly Cloudy
6:32 AM 42.8 °F 35.1 °F 37.4 °F 81% 29.86 in 10.0 mi West 16.1 mph - N/A   Mostly Cloudy
6:52 AM 41.0 °F 32.8 °F 37.4 °F 87% 29.88 in 10.0 mi West 16.1 mph - N/A   Mostly Cloudy
7:13 AM 41.0 °F 32.8 °F 37.4 °F 87% 29.89 in 10.0 mi West 16.1 mph - N/A   Overcast
7:32 AM 42.8 °F 34.3 °F 37.4 °F 81% 29.90 in 10.0 mi West 19.6 mph 24.2 mph N/A   Overcast
7:52 AM 42.8 °F 34.5 °F 35.6 °F 76% 29.91 in 10.0 mi West 18.4 mph - N/A   Mostly Cloudy
8:12 AM 42.8 °F 34.8 °F 35.6 °F 76% 29.93 in 10.0 mi West 17.3 mph - N/A   Scattered Clouds
8:32 AM 42.8 °F 34.5 °F 35.6 °F 76% 29.95 in 10.0 mi West 18.4 mph 25.3 mph N/A   Mostly Cloudy
8:53 AM 42.8 °F 33.1 °F 35.6 °F 76% 29.96 in 10.0 mi West 25.3 mph 29.9 mph N/A   Overcast
9:12 AM 42.8 °F 33.5 °F 35.6 °F 76% 29.97 in 10.0 mi WNW 23.0 mph 35.7 mph N/A   Overcast
9:32 AM 42.8 °F 34.5 °F 35.6 °F 76% 29.97 in 10.0 mi WNW 18.4 mph 29.9 mph N/A   Overcast
9:53 AM 44.6 °F 35.9 °F 35.6 °F 71% 29.98 in 10.0 mi WNW 23.0 mph 29.9 mph N/A   Overcast
10:12 AM 44.6 °F 34.9 °F 35.6 °F 71% 30.00 in 10.0 mi WNW 28.8 mph 36.8 mph N/A   Overcast
10:32 AM 44.6 °F 35.7 °F 35.6 °F 71% 30.00 in 10.0 mi WNW 24.2 mph 27.6 mph N/A   Mostly Cloudy
10:53 AM 44.6 °F 36.6 °F 35.6 °F 71% 30.01 in 10.0 mi WNW 19.6 mph 27.6 mph N/A   Mostly Cloudy
11:12 AM 44.6 °F 36.6 °F 35.6 °F 71% 30.02 in 10.0 mi WNW 19.6 mph 27.6 mph N/A   Mostly Cloudy
11:33 AM 44.6 °F 35.7 °F 35.6 °F 71% 30.01 in 10.0 mi WNW 24.2 mph 28.8 mph N/A   Mostly Cloudy
11:52 AM 44.6 °F 35.7 °F 35.6 °F 71% 30.02 in 10.0 mi West 24.2 mph 29.9 mph N/A   Mostly Cloudy
12:12 PM 44.6 °F 35.9 °F 35.6 °F 71% 30.02 in 10.0 mi West 23.0 mph 31.1 mph N/A   Mostly Cloudy
12:33 PM 44.6 °F 36.4 °F 35.6 °F 71% 30.03 in 10.0 mi WNW 20.7 mph 26.5 mph N/A   Mostly Cloudy
12:52 PM 44.6 °F 35.9 °F 33.8 °F 66% 30.03 in 10.0 mi WNW 23.0 mph 31.1 mph N/A   Mostly Cloudy
1:12 PM 46.4 °F 37.9 °F 33.8 °F 62% 30.03 in 10.0 mi West 25.3 mph 33.4 mph N/A   Mostly Cloudy
1:33 PM 46.4 °F 37.9 °F 33.8 °F 62% 30.04 in 10.0 mi West 25.3 mph 28.8 mph N/A   Mostly Cloudy
1:52 PM 46.4 °F 38.7 °F 33.8 °F 62% 30.04 in 10.0 mi West 20.7 mph 31.1 mph N/A   Scattered Clouds
2:12 PM 44.6 °F 36.6 °F 33.8 °F 66% 30.04 in 10.0 mi West 19.6 mph 26.5 mph N/A   Scattered Clouds
2:33 PM 44.6 °F 36.6 °F 32.0 °F 61% 30.05 in 10.0 mi WNW 19.6 mph 31.1 mph N/A   Scattered Clouds
2:52 PM 46.4 °F 38.1 °F 30.2 °F 53% 30.06 in 10.0 mi WNW 24.2 mph 33.4 mph N/A   Mostly Cloudy
3:12 PM 46.4 °F 38.5 °F 32.0 °F 57% 30.07 in 10.0 mi WNW 21.9 mph 33.4 mph N/A   Mostly Cloudy
3:33 PM 44.6 °F 35.7 °F 30.2 °F 57% 30.08 in 10.0 mi WNW 24.2 mph 32.2 mph N/A   Scattered Clouds
3:52 PM 44.6 °F 36.1 °F 30.2 °F 57% 30.09 in 10.0 mi WNW 21.9 mph 29.9 mph N/A   Scattered Clouds
4:12 PM 42.8 °F 33.8 °F 28.4 °F 57% 30.10 in 10.0 mi WNW 21.9 mph 28.8 mph N/A   Clear
4:33 PM 42.8 °F 34.3 °F 28.4 °F 57% 30.12 in 10.0 mi WNW 19.6 mph 27.6 mph N/A   Clear
4:52 PM 41.0 °F 33.1 °F 30.2 °F 65% 30.12 in 10.0 mi WNW 15.0 mph - N/A   Mostly Cloudy
5:12 PM 39.2 °F 30.5 °F 28.4 °F 65% 30.13 in 10.0 mi WNW 16.1 mph - N/A   Mostly Cloudy
5:33 PM 39.2 °F 30.8 °F 28.4 °F 65% 30.14 in 10.0 mi WNW 15.0 mph 21.9 mph N/A   Scattered Clouds
5:52 PM 37.4 °F 28.5 °F 28.4 °F 70% 30.15 in 10.0 mi WNW 15.0 mph 20.7 mph N/A   Clear
6:12 PM 37.4 °F 28.5 °F 28.4 °F 70% 30.16 in 10.0 mi WNW 15.0 mph - N/A   Clear
6:33 PM 37.4 °F 28.5 °F 28.4 °F 70% 30.17 in 10.0 mi WNW 15.0 mph - N/A   Clear
6:52 PM 35.6 °F 27.5 °F 28.4 °F 75% 30.18 in 10.0 mi West 11.5 mph - N/A   Clear
7:12 PM 35.6 °F 27.5 °F 28.4 °F 75% 30.19 in 10.0 mi WNW 11.5 mph - N/A   Scattered Clouds
7:33 PM 35.6 °F 26.2 °F 28.4 °F 75% 30.21 in 10.0 mi WNW 15.0 mph 20.7 mph N/A   Clear
7:52 PM 35.6 °F 26.2 °F 28.4 °F 75% 30.22 in 10.0 mi NW 15.0 mph - N/A   Clear
8:12 PM 33.8 °F 23.2 °F 26.6 °F 75% 30.22 in 10.0 mi NW 17.3 mph - N/A   Clear
8:33 PM 33.8 °F 22.2 °F 26.6 °F 75% 30.23 in 10.0 mi NW 20.7 mph 26.5 mph N/A   Clear
8:52 PM 33.8 °F 23.5 °F 26.6 °F 75% 30.23 in 10.0 mi WNW 16.1 mph - N/A   Clear
9:13 PM 32.0 °F 21.6 °F 26.6 °F 80% 30.24 in 10.0 mi WNW 15.0 mph - N/A   Clear
9:33 PM 32.0 °F 21.6 °F 26.6 °F 80% 30.25 in 10.0 mi WNW 15.0 mph 21.9 mph N/A   Clear
9:52 PM 32.0 °F 21.6 °F 26.6 °F 80% 30.26 in 10.0 mi WNW 15.0 mph - N/A   Clear
10:13 PM 32.0 °F 21.6 °F 26.6 °F 80% 30.27 in 10.0 mi WNW 15.0 mph - N/A   Clear
10:33 PM 32.0 °F 22.5 °F 26.6 °F 80% 30.27 in 10.0 mi WNW 12.7 mph - N/A   Clear
10:52 PM 30.2 °F 19.8 °F 26.6 °F 86% 30.28 in 10.0 mi West 13.8 mph - N/A   Clear
11:13 PM 30.2 °F 20.8 °F 26.6 °F 86% 30.29 in 10.0 mi West 11.5 mph - N/A   Clear
11:33 PM 30.2 °F 20.8 °F 26.6 °F 86% 30.29 in 10.0 mi WNW 11.5 mph - N/A   Clear
11:52 PM 28.4 °F 19.7 °F 24.8 °F 86% 30.29 in 10.0 mi West 9.2 mph - N/A   Clear